Regional Weather Roundup
Issued by NWS Green Bay, WI

Home | Current Version | Previous Version | Graphics & Text | Print | Product List | Glossary Off
Versions: 1 2 3 4 5 6 7 8 9 10 11 12 13 14 15 16 17 18 19 20 21 22 23 24 25 26 27 28 29 30 31 32 33 34 35 36 37 38 39 40 41 42 43 44 45 46 47 48 49 50

000
ASUS43 KGRB 291211
RWRGRB

NORTH-CENTRAL AND NORTHEAST WISCONSIN REGIONAL WEATHER ROUNDUP
NATIONAL WEATHER SERVICE GREEN BAY WI
700 AM CDT FRI JUL 29 2016

WIZ005-009-010>012-018-019-291300-
NORTH CENTRAL WISCONSIN

CITY           SKY/WX    TMP DP  RH WIND       PRES   REMARKS
IRONWOOD       SUNNY     48  46  93 CALM      30.11S
MANITOWISH WTR SUNNY     54  54 100 N8        30.11S
ARBOR VITAE    SUNNY     57  54  90 NE5       30.10S
EAGLE RIVER    SUNNY     51  51 100 N3        30.10R
LAND O LAKES   SUNNY     52  52 100 N5        30.11S
RHINELANDER    SUNNY     53  50  89 N3        30.09S
PHILLIPS       SUNNY     52  51  97 NE7       30.09S
ANTIGO         MOSUNNY   56  52  88 NE5       30.07R
TOMAHAWK       SUNNY     51  50  97 CALM      30.09R
MERRILL        SUNNY     54  51  92 CALM      30.08R
$$

WIZ013-073-291300-
NORTHEAST WISCONSIN

CITY           SKY/WX    TMP DP  RH WIND       PRES   REMARKS
IRON MOUNTAIN  MOSUNNY   55  51  86 N5        30.07R
MARINETTE      MOSUNNY  N/A N/A N/A N3        30.05R
OCONTO         CLOUDY    59  59 100 CALM      30.04R
$$

WIZ017-030-035>037-045-291300-
CENTRAL WISCONSIN

CITY           SKY/WX    TMP DP  RH WIND       PRES   REMARKS
MEDFORD        SUNNY     55  54  97 NE3       30.07R
WAUSAU         PTSUNNY   59  52  77 N3        30.04R
MOSINEE        MOSUNNY   59  54  82 NE8       30.06R
MARSHFIELD     SUNNY     60  54  80 NE9       30.04R
WISC RAPIDS    MOSUNNY   60  52  74 VRB7      30.05R
STEVENS POINT  CLOUDY    56  53  88 NE8       30.05R
WAUPACA        CLOUDY    62  58  88 N3        30.03S
SHAWANO        CLOUDY    62  56  82 NE5       30.05R
CLINTONVILLE   CLOUDY    59  54  82 NE6       30.04R
WAUTOMA        CLOUDY    60  57  89 MISG      30.02S
$$

WIZ038-039-048-051-291300-
FOX VALLEY

CITY           SKY/WX    TMP DP  RH WIND       PRES   REMARKS
NWS GREEN BAY  CLOUDY    61  60  97 N8        30.02S
APPLETON       CLOUDY    61  55  82 NE9       30.01R
OSHKOSH        CLOUDY    65  62  90 NE13      30.00S
FOND DU LAC    CLOUDY    65  62  90 NE8       29.99F
$$

WIZ022-050-052-291300-
EAST CENTRAL WISCONSIN

CITY           SKY/WX    TMP DP  RH WIND       PRES   REMARKS
EPHRAIM        CLOUDY    64  62  91 NE5       30.03S
WASHINGTON ISL NOT AVBL
STURGEON BAY   CLOUDY    65  63  93 E3        30.04S
MANITOWOC      CLOUDY    66  63  90 MISG      30.01R
SHEBOYGAN      CLOUDY    67  64  90 NE10      29.99S
$$

LMZ563-521-522-541>543-291300-
LAKESHORE

STATION/POSITION TIME  TEMP    WIND        PRES    VSBY  WAVE
                       AIR SEA DIR/SP/G                  HT/PER
                 (UTC) (F)     (DEG/KT/KT) (MB)    (MI)  (FT/S)
SHEBOYGAN LKSHOR 1200   64      20/  8/  9 1015.7S
KEWAUNEE LKSHORE 1100   64      50/  7/ 10 1015.7S
ALGOMA MARINA    1143          120/ 11/ 13   N/A
NORTHPORT PIER   1100   66     360/  3/  4 1016.9S
N MID LAKE BUOY  1150   69 69  110/ 16/ 16 1016.3R         2/ 4
SISTER BAY LKSHO 1106   63        CALM       N/A
CHAMBERS ISLAND  1100   66      30/  7/ 10 1016.9S
MENOMINEE LKSHOR 1100   62     350/  9/ 12 1016.2R
$$




USA.gov is the U.S. government's official web portal to all federal, state and local government web resources and services.